Карточка аэропорта USSS

Внимание!
Информация на этой странице в стадии наполнения.
Если вы не увидели какой-то информации, или заметили неточность - пожалуйста сообщите нам!
Спасибо!
Команда RU-STAFF
Название аэропортаКольцово
Название аэропорта (англ.)Koltsovo
Превышение766 ft. (233.5 m.)
Координаты56°44.586', 60°48.186'
Высота перехода4000ft
Эшелон переходаQNH>=1013hPa:FL50; QNH 1013hPa-977hPa:FL60; QNH<=977hpa:FL70
Коды ответчика5520-5557
Зона ОрВДЕкатеринбург РПИ (USSV)
Данные METARUSSS 280930Z 28014G20MPS CAVOK 20/05 Q1011 R26R/010060 R26L/010060 NOSIG RMK QFE737/0983
Проноз погоды (TAF)USSS 280759Z 2809/2909 28012G25MPS 9999 SCT040 TEMPO 2812/2820 -SHRA BKN016CB BECMG 2812/2814 33005G15MPS FM282000 04003G11MPS 6000 -SHRA SCT020CB
NOTAMshow/hide NOTAM
AWOS   TABLE

Информация о ВПП

ВПП Длина ВПП (м.) Покрытие Курс ВПП Частота ILS
08L3004Асфальтобетон75111.7
08R3026Бетон79109.9
26R3004Асфальтобетон255110.5
26L3026Бетон259109.5

Диспетчерские позиции

Позывной Наименование органа УВД Частота
USSSFM1Машина сопровождения119.000
USSS_APPКольцово-Подход125.9
USSS_ATIS_APPКольцово АТИС127.850
USSS_GNDКольцово-Руление119.0
USSS_R_APPКольцово-Круг118.7
USSS_TWRКольцово-Старт124.3
USSV_FSS_CTRКольцово Транзит131.900



Спутниковое изображение